Regional Weather Roundup
Issued by NWS Albany, NY

Home | Current Version | Previous Version | Text Only | Print | Product List | Glossary On
Versions: 1 2 3 4 5 6 7 8 9 10 11 12 13 14 15 16 17 18 19 20 21 22 23 24 25 26 27 28 29 30 31 32 33 34
000
ASUS41 KALY 221610
RWRALY

NEW YORK STATE HOURLY WEATHER ROUNDUP
NATIONAL WEATHER SERVICE ALBANY NY
1200 PM EDT WED OCT 22 2014

NOTE: "FAIR" INDICATES FEW OR NO CLOUDS BELOW 12,000 FEET WITH NO
SIGNIFICANT WEATHER AND/OR NO OBSTRUCTIONS TO VISIBILITY.

NYZ032-033-038>043-046>054-057>066-NYZ062>081-221700-
EAST


CITY           SKY/WX    TMP DP  RH WIND       PRES   REMARKS
ALBANY         CLOUDY    52  45  77 N10       30.09F
GLENS FALLS    CLOUDY    52  45  77 N9        30.12F
POUGHKEEPSIE   CLOUDY    53  47  79 N14       29.98F
NEWBURGH       CLOUDY    52  48  87 NE12G17   29.99F
MONTGOMERY     CLOUDY    53  47  79 NE16G29   29.97F
WHITE PLAINS   CLOUDY    55  49  80 NE14G22   29.93R
ISLIP          LGT RAIN  56  52  86 N16G26    29.88F
NEW YORK CITY  LGT RAIN  56  51  84 NE15      29.92S
CENTRAL PARK   CLOUDY    56  51  84 NE10G17   29.94F
$$

NYZ005>009-017-018-044>046-055-056-221700-
CENTRAL


CITY           SKY/WX    TMP DP  RH WIND       PRES   REMARKS
FULTON         PTSUNNY   52  43  71 N9        30.17S
SYRACUSE       CLOUDY    53  46  77 N10       30.14F
ROME           CLOUDY    52  45  77 NE8G17    30.14S
ELMIRA         CLOUDY    48  45  89 N9        30.12S
BINGHAMTON     CLOUDY    49  45  86 N13       30.08R
MONTICELLO     CLOUDY    48  46  93 N9        30.01F
$$

NYZ026>034-041>043-221700-
NORTH


CITY           SKY/WX    TMP DP  RH WIND       PRES   REMARKS
WATERTOWN      PTSUNNY   50  38  63 NE21      30.20S
FORT DRUM      NOT AVBL
MASSENA        CLOUDY    45  38  76 NE14      30.28S
SARANAC LAKE   CLOUDY    40  40 100 NE6       30.18S FOG
PLATTSBURGH    LGT RAIN  45  43  93 N16       30.23S
$$

NYZ001>004-010>016-019>021-221700-
WEST


CITY           SKY/WX    TMP DP  RH WIND       PRES   REMARKS
NIAGARA FALLS  CLOUDY    46  38  73 N14       30.24S
BUFFALO        CLOUDY    47  39  74 N10       30.23S
DUNKIRK        CLOUDY    47  41  80 NE10      30.24R
JAMESTOWN      CLOUDY    41  37  87 N9        30.20R
WELLSVILLE     FOG       42  41  96 N7        30.15R VSB 1/4
ROCHESTER      CLOUDY    48  42  80 N15       30.21S
PENN YAN       CLOUDY    47  43  86 N8        30.17R
$$

             KEY
       WCI = WIND CHILL INDEX
       VSB = VISIBILITY
       HX  = HEAT INDEX
$$



USA.gov is the U.S. government's official web portal to all federal, state and local government web resources and services.